Location: Joplin, MO
(37.0842°N, 94.5133°W)
Time: 01:54:38
(UTC+01:00)

X-37B - Visible Passes

Search period start: 29 November 2022 00:00
Search period end: 09 December 2022 00:00
Orbit: 277 x 277 km, 45.0° (Epoch: 01 November)

Date Brightness Start Highest point End Pass type
(mag) Time Alt. Az. Time Alt. Az. Time Alt. Az.
05 Dec 3.3 02:00:03 10° SW 02:00:20 12° SW 02:00:20 12° SW visible
06 Dec 3.2 02:00:39 10° WSW 02:01:14 16° WSW 02:01:14 16° WSW visible
07 Dec 2.0 00:27:59 10° S 00:29:45 18° SE 00:31:32 10° E visible
07 Dec 3.3 02:01:28 10° W 02:02:05 15° W 02:02:05 15° W visible
08 Dec 0.8 00:28:02 10° SW 00:30:20 36° SE 00:32:38 10° ENE visible
08 Dec 3.4 02:02:30 10° WNW 02:02:51 12° WNW 02:02:51 12° WNW visible
